Location: Владивосток
(43.1151°N, 131.8856°E)
Time: 01:00:29
(UTC+10:00)

SPROUT - Visible Passes

Search period start: 03 July 2022 00:00
Search period end: 13 July 2022 00:00
Orbit: 588 x 601 km, 97.9° (Epoch: 01 July)

Date Brightness Start Highest point End Pass type
(mag) Time Alt. Az. Time Alt. Az. Time Alt. Az.
03 Jul ? 00:59:09 18° E 01:00:17 20° ENE 01:03:17 10° NNE visible
03 Jul ? 02:35:47 37° W 02:35:47 37° W 02:39:31 10° NNW visible
04 Jul ? 01:08:43 22° E 01:09:39 24° ENE 01:13:00 10° NNE visible
04 Jul ? 02:45:21 29° W 02:45:21 29° W 02:48:47 10° NW visible
05 Jul ? 01:18:17 28° E 01:19:00 29° ENE 01:22:39 10° N visible
05 Jul ? 02:54:55 24° W 02:54:55 24° W 02:57:59 10° NW visible
06 Jul ? 01:27:50 35° E 01:28:23 37° ENE 01:32:13 10° N visible
06 Jul ? 03:04:28 19° W 03:04:28 19° W 03:07:06 10° NW visible
07 Jul ? 01:37:23 45° E 01:37:45 46° ENE 01:41:45 10° N visible
07 Jul ? 03:14:01 15° W 03:14:01 15° W 03:16:03 10° NW visible
08 Jul ? 01:46:56 59° E 01:47:08 59° ENE 01:51:15 10° N visible
08 Jul ? 03:23:34 12° W 03:23:34 12° W 03:24:43 10° WNW visible
09 Jul ? 01:56:28 76° E 01:56:31 76° ENE 02:00:41 10° N visible
10 Jul ? 02:06:00 83° WNW 02:06:00 83° WNW 02:10:06 10° NNW visible
11 Jul ? 00:38:54 11° E 00:40:15 12° ENE 00:41:58 10° NE visible
11 Jul ? 02:15:32 64° WNW 02:15:32 64° WNW 02:19:28 10° NNW visible
12 Jul ? 00:48:25 14° E 00:49:32 15° ENE 00:51:57 10° NNE visible
12 Jul ? 02:25:03 49° W 02:25:03 49° W 02:28:47 10° NNW visible
